TITAN 3C TRANSTAGE DEB, 27878

Orbit data source: Space-Track

TITAN 3C TRANSTAGE DEB, 27878 is space debris in HEO originally from a launch on Tue, 21 Dec 1965 UTC launched from the Air Force Eastern Test Range (AFETR). Debris objects in space refer to the collection of defunct objects orbiting the Earth. Examples of debris include non-operational satellites, rocket bodies, and fragments generated from explosions, collisions, or faulty payload assembly.

Loading next visibility...
Identifier
27878, 1965-108BP
Orbit
HEO
Country
Flag of USUS
Related business
Manufacturer
Unknown
Mission
Spacecraft
Bus & Motor
Unknown
Mass
Unknown
Launch date (UTC)
1965-12-21 (60 years ago)
Launch vehicle
Unknown
Launch site
Air Force Eastern Test Range (AFETR)
Object type
Payload
Rocket body
Debris
Shape & HBR
Unknown shape, 0.1 m
Radar Cross Section
Medium (>0.1 m² and <1 m²)

Expand to show TLE details & history
Last TLE update: 3 days ago

TLE from 3 days ago
0 TITAN 3C TRANSTAGE DEB
1 27878U 65108BP  26130.29552034  .00000113  00000-0  13874-2 0  9994
2 27878  26.2521 139.9351 6686847  59.1035   7.3197  2.84426526125139
Epoch: 2026-05-10T07:05Z
TLE epoch observation values (Epoch: 2026-05-10T07:05:32.957Z)
Latitude
25.49816°
Longitude
-88.85552°
Altitude
1,511.134 km
Speed
9.063 km/s
True Right ascension
16h 22m 31s
True Declination
25° 22' 39"
Sunlit
Object was in full shadow at epoch
Visualization orbit readout
Latitude
Unknown
Longitude
Unknown
Altitude
Unknown
Speed
Unknown
Apparent Right ascension
Unknown
Apparent Declination
Unknown
Sunlit
N/A
Visualization observer readout
Local Sidereal Time
23:50:54
Azimuth
Unknown
Elevation
Unknown
Doppler factor
Unknown
Orbital elements
Apogee altitude
28,740.467 km
Perigee altitude
594.619 km
Semi-major axis
21,045.68 km
Eccentricity
0.66868
Inclination
26.2521°
RAAN
139.9351°
Arg. of periapsis
59.1035°
True anomaly
45.43083°
Mean anomaly
7.3197°
Eccentric anomaly
21.1324°
Mean motion
0.71088 °/min
Orbital period
506.41 mins
BSTAR
0.0013874
Loading maneuver chart data...
Computing Atmospheric mass density...

Documentation

Showing up to 5 results
|